Location: F?ge?el
(45.8833°N, 22.5833°E)
Time: 07:18:47
(UTC+00:00)

Okean 1 Rocket - Pass Details

Date: 17 November 2025
Orbit: 599 x 628 km, 82.5° (Epoch: 13 December)

Event Time Altitude Azimuth Distance (km) Brightness Sun altitude
Rises 16:07:40 0° 153° (SSE) 2,891 6.4 -12.4°
Reaches altitude 10° 16:10:15 10° 139° (SE) 1,986 5.4 -12.9°
Maximum altitude 16:13:41 23° 88° (E) 1,335 4.2 -13.4°
Enters shadow 16:14:36 21° 69° (ENE) 1,392 4.2 -13.6°
